THOR ABLESTAR DEB, 13513

Orbit data source: Space-Track

THOR ABLESTAR DEB, 13513 is space debris in LEO originally from a launch on Thu, 29 Jun 1961 UTC launched from the Air Force Eastern Test Range (AFETR). Debris objects in space refer to the collection of defunct objects orbiting the Earth. Examples of debris include non-operational satellites, rocket bodies, and fragments generated from explosions, collisions, or faulty payload assembly.

Loading next visibility...
Identifier
13513, 1961-015KW
Orbit
LEO
Country
Flag of USUS
Related business
Manufacturer
Unknown
Mission
Spacecraft
Bus & Motor
Unknown
Mass
Unknown
Launch date (UTC)
1961-06-29 (65 years ago)
Launch vehicle
Unknown
Launch site
Air Force Eastern Test Range (AFETR)
Object type
Payload
Rocket body
Debris
Shape & HBR
Unknown shape, 0.1 m
Radar Cross Section
Small (<0.1 m²)

Expand to show TLE details & history
Last TLE update: 16 hours ago

TLE from 16 hours ago
0 THOR ABLESTAR DEB
1 13513U 61015KW  26100.20086014  .00000732  00000-0  63869-3 0  9993
2 13513  65.6799   6.0589 0103308 248.8703 275.0118 13.89607840309712
Epoch: 2026-04-10T04:49Z
TLE epoch observation values (Epoch: 2026-04-10T04:49:14.316Z)
Latitude
15.71745°
Longitude
-91.95709°
Altitude
925.497 km
Speed
7.394 km/s
True Right ascension
11h 55m 09s
True Declination
15° 37' 48"
Sunlit
Object was in full shadow at epoch
Visualization orbit readout
Latitude
Unknown
Longitude
Unknown
Altitude
Unknown
Speed
Unknown
Apparent Right ascension
Unknown
Apparent Declination
Unknown
Sunlit
N/A
Visualization observer readout
Local Sidereal Time
02:44:57
Azimuth
Unknown
Elevation
Unknown
Doppler factor
Unknown
Orbital elements
Apogee altitude
1,004.014 km
Perigee altitude
853.046 km
Semi-major axis
7,306.667 km
Eccentricity
0.01033
Inclination
65.6799°
RAAN
6.0589°
Arg. of periapsis
248.8703°
True anomaly
273.83126°
Mean anomaly
275.0118°
Eccentric anomaly
274.42165°
Mean motion
3.47508 °/min
Orbital period
103.59 mins
BSTAR
0.00063869
Loading maneuver chart data...
Computing Atmospheric mass density...

Documentation

Showing up to 5 results
|